Simultaneous Nadir Overpasses (SNOs) Predictions

Prediction of SNOs between METOP-A and NOAA-19 Satellite Orbit:

Table of predicted SNOs for the next 14.0 days since TLE Epoch: 10/18/2013
Index Date (METOP-A) Time (METOP-A) Lat,Lon (METOP-A) SZA (METOP-A ) Date (NOAA-19) Time (NOAA-19) Lat,Lon (NOAA-19) SZA (NOAA-19 ) Distance(km) Time Diff (sec)
1 10/27/2013 12:15:36 73.68, -10.20 86.54 10/27/2013 12:14:23 73.67, -10.19 86.52 1.91 73
2 10/27/2013 13:06:19 -73.64, 157.02 93.50 10/27/2013 13:05:26 -73.66, 157.06 93.48 3.05 53
3 10/27/2013 13:56:58 73.66, -35.59 86.54 10/27/2013 13:56:27 73.65, -35.67 86.53 2.87 31
4 10/27/2013 14:47:41 -73.62, 131.63 93.50 10/27/2013 14:47:29 -73.60, 131.70 93.52 2.93 12
5 10/27/2013 15:38:21 73.59, -61.09 86.49 10/27/2013 15:38:30 73.59, -61.04 86.49 1.70 9
6
